STARLINK-1078 (44936 NORAD) Tracking and Keplerian Element Data

This shows tracking and keplerian element data for the satellite.

Feedback or suggestion? Click here.




ElementValue
Catalog44936
NameSTARLINK-1078
Epoch Orbit721
Epoch Day52.78611134
Epoch Year2020
RAAN169.5462
Inclination52.9966
Eccentricity0.0002295
Argument of Perigee27.4101
Mean Anonmoly332.7036
Mean Motion15.73182461
Decay Rate-0.00010127
L11 44936U 20001Y 20052.78611134 -.00010127 00000-0 -67833-4 0 9993
L22 44936 52.9966 169.5462 0002295 27.4101 332.7036 15.73182461 7213

Live tracking and technical data element details for STARLINK-1078 (NORAD 44936). STARLINK-1078 can be tracked NOW for your location showing map with azimuth and elevation plus other details from your city location.

Track the satellite on the map from your city or location and see movement details for azimuth, elevation, latitude, longitude, range, height, and movement on the map or in text.







IsCatalogInMostPopularTable: catalog: 44936, numindb: 14
Update: records affected: 1



GetName: 44936 STARLINK-1078

Hit Count: updated at: Mon, 24 Feb 2020 19:05:51 GMT